This is the latest recevied weather packets stored in our database for station/object WA9SDJ-13. If no packets are shown the sender has not sent any weather packets the latest 10 day(s).
| Time | Temp. | Humidity | Pressure | Rain* | Wind** | Luminosity | Snow |
|---|---|---|---|---|---|---|---|
| 1778348347 | 20.56° C | 74% | 1007.4 hPa | 0 mm | - | 949 W/m² | - |
| 1778348286 | 20.56° C | 75% | 1007.4 hPa | 0 mm | - | 951 W/m² | - |
| 1778348224 | 20.56° C | 74% | 1007.4 hPa | 0 mm | - | 949 W/m² | - |
| 1778348163 | 20.56° C | 73% | 1007.4 hPa | 0 mm | - | 946 W/m² | - |
| 1778348103 | 20.56° C | 73% | 1007.5 hPa | 0 mm | - | 946 W/m² | - |
| 1778348042 | 20.56° C | 73% | 1007.7 hPa | 0 mm | - | 946 W/m² | - |
| 1778347983 | 20.56° C | 72% | 1007.7 hPa | 0 mm | - | 946 W/m² | - |
| 1778347922 | 20.56° C | 73% | 1007.5 hPa | 0 mm | - | 948 W/m² | - |
| 1778347862 | 20.56° C | 74% | 1007.7 hPa | 0 mm | - | 946 W/m² | - |
| 1778347802 | 20.56° C | 73% | 1007.7 hPa | 0 mm | - | 946 W/m² | - |
| 1778347742 | 20.56° C | 75% | 1007.8 hPa | 0 mm | - | 946 W/m² | - |
| 1778347682 | 20° C | 74% | 1007.7 hPa | 0 mm | - | 944 W/m² | - |
| 1778347622 | 20° C | 76% | 1007.7 hPa | 0 mm | - | 946 W/m² | - |
| 1778347562 | 20° C | 75% | 1007.7 hPa | 0 mm | - | 948 W/m² | - |
| 1778347503 | 20° C | 75% | 1007.7 hPa | 0 mm | - | 944 W/m² | - |
| 1778347443 | 20° C | 77% | 1007.7 hPa | 0 mm | - | 944 W/m² | - |
| 1778347383 | 20° C | 75% | 1007.7 hPa | 0 mm | - | 895 W/m² | - |
| 1778347322 | 20° C | 76% | 1007.7 hPa | 0 mm | - | 855 W/m² | - |
| 1778347262 | 20° C | 77% | 1007.7 hPa | 0 mm | - | 911 W/m² | - |
| 1778347202 | 20° C | 78% | 1007.7 hPa | 0 mm | - | 941 W/m² | - |
| 1778347142 | 20° C | 77% | 1007.8 hPa | 0 mm | - | 937 W/m² | - |
| 1778347082 | 20° C | 76% | 1007.8 hPa | 0 mm | - | 942 W/m² | - |
| 1778347022 | 20° C | 77% | 1007.8 hPa | 0 mm | - | 935 W/m² | - |
| 1778346962 | 20° C | 78% | 1007.9 hPa | 0 mm | - | 939 W/m² | - |
| 1778346902 | 19.44° C | 77% | 1007.9 hPa | 0 mm | - | 939 W/m² | - |
* Rain latest hour (hover to see other rain measurements)
** Current wind speed in m/s (hover to see current wind gust speed)